COSMOS 2522 (752) (42939 NORAD) Tracking and Keplerian Element Data

This shows tracking and keplerian element data for the satellite.

Feedback or suggestion? Click here.




ElementValue
Catalog42939
NameCOSMOS 2522 (752)
Epoch Orbit5222
Epoch Day160.04015814
Epoch Year2024
RAAN217.0799
Inclination64.082
Eccentricity0.0009684
Argument of Perigee239.6572
Mean Anonmoly120.3329
Mean Motion2.13101895
Decay Rate4.5E-07
L11 42939U 17055A 24160.04015814 .00000045 00000+0 00000+0 0 9998
L22 42939 64.0820 217.0799 0009684 239.6572 120.3329 2.13101895 52226



Live tracking and technical data element details for COSMOS 2522 (752) (NORAD 42939). COSMOS 2522 (752) can be tracked NOW for your location showing map with azimuth and elevation plus other details from your city location.







IsCatalogInMostPopularTable: catalog: 42939, numindb: 656
Update: records affected: 1



GetName: 42939 COSMOS 2522 (752)

Hit Count: updated at: Tue, 18 Jun 2024 00:28:56 GMT